Simultaneous Nadir Overpasses (SNOs) Predictions

Prediction of SNOs between GOES-16 and METOP-C Satellite Orbit:

Table of predicted SNOs for the next 14.0 days since TLE Epoch: 7/15/2024
Index Date Time (GOES-16) GOES-16 Lat,Lon METOP-C Lat,Lon Distance(km) Time Diff (sec)
1 07/15/2024 14:41:55 0.01, -75.20 0.64, -78.10 330.22 80
2 07/16/2024 14:23:55 0.02, -75.20 -0.47, -73.11 239.21 80
3 07/18/2024 02:40:16 -0.01, -75.20 -0.57, -77.70 284.59 80
4 07/19/2024 02:22:16 -0.02, -75.20 0.54, -72.70 284.85 80
5 07/20/2024 14:38:27 0.01, -75.20 0.49, -77.25 234.09 80
6 07/21/2024 14:20:28 0.02, -75.20 -0.62, -72.25 335.58 80
7 07/23/2024 02:36:48 -0.01, -75.21 -0.39, -76.85 187.43 80
8 07/24/2024 02:18:49 -0.00, -75.21 0.74, -71.85 382.55 80
9 07/25/2024 14:35:01 -0.01, -75.23 0.24, -76.42 135.32 80
10 07/26/2024 14:17:02 -0.00, -75.24 -0.89, -71.42 435.33 80
11 07/28/2024 02:36:01 0.00, -75.25 -0.15, -76.01 85.93 80
12 07/29/2024 02:12:40 -0.00, -75.26 0.93, -71.00 484.99 80
